Weather History for Harrisburg, IL

Change the Weather History Date:

Saturday, December 28, 2013

  Actual Average (KMWA) Record (KMWA)
Temperature  
Mean Temperature 38 °F -  
Max Temperature 47 °F 41 °F 65 °F (1971)
Min Temperature 29 °F 24 °F 8 °F (2000)
Degree Days  
Heating Degree Days 27    
Moisture  
Dew Point 33 °F    
Average Humidity 77    
Maximum Humidity 100    
Minimum Humidity 57    
Precipitation  
Precipitation 0.00 in - - ()
Sea Level Pressure  
Sea Level Pressure 30.19 in    
Wind  
Wind Speed 4 mph (South)    
Max Wind Speed 10 mph    
Max Gust Speed -    
Visibility 10 miles    
Events Rain    
Averages and records for this station are not official NWS values.
T = Trace of Precipitation, MM = Missing Value Source: NWS Daily Summary

Daily Weather History Graph

Daily Weather History Graph

Search for Another Location

Airport:

Trip Planner

Search our weather history database for the weather conditions in past years. The results will help you decide how hot, cold, wet, or windy it might be!

Date:

Astronomy

Dec. 28, 2013 Rise Set
Actual Time 7:08 AM CST 4:43 PM CST
Civil Twilight 6:39 AM CST 5:12 PM CST
Nautical Twilight 6:06 AM CST 5:45 PM CST
Astronomical Twilight 5:34 AM CST 6:17 PM CST
Moon 2:48 AM CST (12/28) 1:31 PM CST (12/28)
Length of Visible Light 10h 32m
Length of Day
9h 34m
Waning Crescent, 19% of the Moon is Illuminated
Dec 28
Waning Crescent
Jan 1
New
Jan 7
First Quarter
Jan 15
Full
Jan 23
Last Quarter

Hourly Weather History & Observations

Time (CST) Temp. Windchill Dew Point Humidity Pressure Visibility Wind Dir Wind Speed Gust Speed Precip Events Conditions
12:15 AM 36.7 °F 32.9 °F 32.9 °F 86% 30.33 in 10.0 mi SSW 4.6 mph - N/A   Clear
12:35 AM 37.0 °F 34.5 °F 33.1 °F 86% 30.32 in 10.0 mi SSW 3.5 mph - N/A   Clear
12:55 AM 37.0 °F 33.3 °F 33.1 °F 86% 30.32 in 10.0 mi SSW 4.6 mph - N/A   Clear
1:15 AM 36.5 °F 32.7 °F 32.9 °F 87% 30.32 in 10.0 mi SSW 4.6 mph - N/A   Clear
1:35 AM 36.5 °F 32.7 °F 32.9 °F 87% 30.32 in 10.0 mi SSW 4.6 mph - N/A   Clear
1:55 AM 36.5 °F 31.8 °F 32.5 °F 86% 30.32 in 10.0 mi SSW 5.8 mph - N/A   Clear
2:15 AM 36.3 °F 30.8 °F 32.2 °F 85% 30.33 in 10.0 mi SSW 6.9 mph - N/A   Clear
2:35 AM 36.3 °F 31.6 °F 32.2 °F 85% 30.32 in 10.0 mi SSW 5.8 mph - N/A   Clear
2:55 AM 36.0 °F 31.1 °F 32.2 °F 86% 30.32 in 10.0 mi SSW 5.8 mph - N/A   Clear
3:15 AM 36.1 °F 31.4 °F 32.0 °F 85% 30.31 in 10.0 mi SSW 5.8 mph - N/A   Clear
3:35 AM 36.1 °F 32.3 °F 32.0 °F 85% 30.30 in 10.0 mi SSW 4.6 mph - N/A   Clear
3:55 AM 35.2 °F 31.2 °F 32.0 °F 88% 30.29 in 10.0 mi SSW 4.6 mph - N/A   Clear
4:15 AM 35.8 °F 31.9 °F 32.0 °F 86% 30.29 in 10.0 mi South 4.6 mph - N/A   Clear
4:35 AM 31.5 °F 28.1 °F 29.1 °F 91% 30.28 in 10.0 mi South 3.5 mph - N/A   Clear
4:55 AM 31.3 °F - 30.0 °F 95% 30.29 in 10.0 mi Calm Calm - N/A   Clear
5:15 AM 33.6 °F - 32.9 °F 97% 30.28 in 10.0 mi Calm Calm - N/A   Clear
5:35 AM 32.5 °F - 31.8 °F 97% 30.28 in 10.0 mi Calm Calm - N/A   Clear
5:55 AM 32.0 °F - 31.6 °F 99% 30.28 in 10.0 mi Calm Calm - N/A   Clear
6:15 AM 31.1 °F - 30.2 °F 96% 30.28 in 7.0 mi Calm Calm - N/A   Clear
6:35 AM 30.7 °F - 30.2 °F 98% 30.29 in 7.0 mi Calm Calm - N/A   Clear
6:55 AM 29.8 °F - 29.7 °F 99% 30.28 in 7.0 mi Calm Calm - N/A   Clear
7:15 AM 31.1 °F - 31.1 °F 100% 30.28 in 7.0 mi Calm Calm - N/A   Clear
7:35 AM 29.8 °F - 29.7 °F 99% 30.27 in 10.0 mi Calm Calm - N/A   Clear
7:55 AM 30.4 °F - 30.4 °F 100% 30.27 in 7.0 mi Calm Calm - N/A   Clear
8:15 AM 31.3 °F - 31.3 °F 100% 30.27 in 7.0 mi Calm Calm - N/A   Clear
8:35 AM 36.0 °F - 35.2 °F 97% 30.28 in 10.0 mi Calm Calm - N/A   Clear
8:55 AM 37.4 °F 33.8 °F 34.7 °F 90% 30.29 in 10.0 mi SSW 4.6 mph - N/A   Clear
9:15 AM 37.6 °F 35.1 °F 34.9 °F 90% 30.28 in 10.0 mi SW 3.5 mph - N/A   Clear
9:35 AM 41.0 °F 38.0 °F 36.0 °F 82% 30.28 in 10.0 mi SW 4.6 mph - N/A   Clear
9:55 AM 42.8 °F 39.3 °F 35.4 °F 75% 30.27 in 10.0 mi SW 5.8 mph - N/A   Clear
10:15 AM 44.1 °F 39.5 °F 35.1 °F 71% 30.28 in 10.0 mi SSW 8.1 mph - N/A   Clear
10:35 AM 43.7 °F 40.3 °F 34.7 °F 71% 30.28 in 10.0 mi SSW 5.8 mph - N/A   Clear
10:55 AM 45.3 °F 42.3 °F 35.6 °F 69% 30.26 in 10.0 mi SSW 5.8 mph - N/A   Clear
11:15 AM 45.7 °F 42.0 °F 35.6 °F 68% 30.25 in 10.0 mi SW 6.9 mph - N/A   Clear
11:35 AM 46.9 °F - 34.9 °F 63% 30.24 in 10.0 mi SSW 6.9 mph - N/A   Clear
11:55 AM 46.8 °F - 34.3 °F 62% 30.22 in 10.0 mi SSW 6.9 mph - N/A   Clear
12:15 PM 47.1 °F - 34.7 °F 62% 30.23 in 10.0 mi SSW 9.2 mph - N/A   Clear
12:35 PM 47.1 °F - 32.4 °F 57% 30.21 in 10.0 mi SSW 10.4 mph - N/A   Clear
12:55 PM 46.8 °F - 32.9 °F 59% 30.20 in 10.0 mi SW 9.2 mph - N/A   Clear
1:15 PM 46.8 °F - 32.2 °F 57% 30.19 in 10.0 mi SW 8.1 mph - N/A   Clear
1:35 PM 46.9 °F - 33.1 °F 59% 30.17 in 10.0 mi SW 6.9 mph - N/A   Clear
1:55 PM 46.9 °F - 33.1 °F 59% 30.16 in 10.0 mi SW 5.8 mph - N/A   Clear
2:15 PM 47.1 °F - 32.9 °F 58% 30.16 in 10.0 mi SSW 6.9 mph - N/A   Clear
2:35 PM 46.9 °F - 34.0 °F 61% 30.16 in 10.0 mi SSW 4.6 mph - N/A   Clear
2:55 PM 47.1 °F - 34.0 °F 60% 30.15 in 10.0 mi Calm Calm - N/A   Clear
3:15 PM 46.6 °F - 33.3 °F 60% 30.14 in 10.0 mi South 5.8 mph - N/A   Clear
3:35 PM 44.8 °F 41.0 °F 33.1 °F 64% 30.14 in 10.0 mi South 6.9 mph - N/A   Clear
3:55 PM 44.2 °F 41.0 °F 34.9 °F 70% 30.14 in 10.0 mi SSE 5.8 mph - N/A   Clear
4:15 PM 42.3 °F 38.6 °F 34.7 °F 75% 30.13 in 10.0 mi SSE 5.8 mph - N/A   Clear
4:35 PM 42.1 °F 38.4 °F 33.3 °F 71% 30.12 in 10.0 mi SSE 5.8 mph - N/A   Clear
4:55 PM 42.4 °F 39.6 °F 32.7 °F 68% 30.12 in 10.0 mi SSE 4.6 mph - N/A   Clear
5:15 PM 41.7 °F 38.0 °F 32.0 °F 68% 30.10 in 10.0 mi ESE 5.8 mph - N/A   Clear
5:35 PM 40.8 °F 36.9 °F 32.2 °F 71% 30.09 in 10.0 mi SE 5.8 mph - N/A   Clear
5:55 PM 40.6 °F - 32.0 °F 71% 30.10 in 10.0 mi Calm Calm - N/A   Clear
6:15 PM 40.1 °F 38.0 °F 32.4 °F 74% 30.09 in 10.0 mi ESE 3.5 mph - N/A   Clear
6:35 PM 39.9 °F 36.7 °F 32.0 °F 73% 30.07 in 10.0 mi ESE 4.6 mph - N/A   Clear
6:55 PM 41.0 °F - 32.0 °F 70% 30.07 in 10.0 mi Calm Calm - N/A   Clear
7:15 PM 40.1 °F 36.1 °F 32.2 °F 73% 30.06 in 10.0 mi SSE 5.8 mph - N/A   Scattered Clouds
7:35 PM 39.6 °F 37.4 °F 32.9 °F 77% 30.07 in 10.0 mi SSE 3.5 mph - N/A   Scattered Clouds
7:55 PM 40.3 °F 38.2 °F 32.4 °F 73% 30.05 in 10.0 mi SSE 3.5 mph - N/A   Scattered Clouds
8:15 PM 40.3 °F 37.1 °F 32.5 °F 74% 30.05 in 10.0 mi SSE 4.6 mph - N/A   Mostly Cloudy
8:35 PM 39.6 °F 37.4 °F 33.1 °F 78% 30.03 in 10.0 mi SE 3.5 mph - N/A   Mostly Cloudy
8:55 PM 40.6 °F 37.5 °F 32.0 °F 71% 30.04 in 10.0 mi SSE 4.6 mph - N/A   Mostly Cloudy
9:15 PM 40.1 °F 36.1 °F 32.9 °F 75% 30.04 in 10.0 mi South 5.8 mph - N/A   Overcast
9:35 PM 39.9 °F 35.8 °F 33.1 °F 77% 30.04 in 10.0 mi South 5.8 mph - N/A   Overcast
9:55 PM 41.9 °F 38.2 °F 32.4 °F 69% 30.04 in 10.0 mi South 5.8 mph - N/A   Overcast
10:15 PM 42.8 °F 39.3 °F 32.0 °F 66% 30.03 in 10.0 mi South 5.8 mph - N/A   Overcast
10:35 PM 42.8 °F 41.1 °F 32.0 °F 66% 30.02 in 10.0 mi South 3.5 mph - N/A   Overcast
10:55 PM 42.3 °F 38.6 °F 32.5 °F 68% 30.01 in 10.0 mi South 5.8 mph - N/A   Overcast
11:15 PM 42.8 °F 40.1 °F 32.4 °F 67% 30.00 in 10.0 mi South 4.6 mph - N/A   Overcast
11:35 PM 42.1 °F 39.2 °F 33.4 °F 71% 29.99 in 10.0 mi South 4.6 mph - N/A Rain Light Rain
11:55 PM 41.9 °F 40.0 °F 34.2 °F 74% 29.98 in 10.0 mi South 3.5 mph - N/A Rain Light Rain